VO1IV-13 Weather Reports


time (UTC)temp
C
wind
direction
speed
KPH
gust
KPH
rain 1hr
cm
rain 24hr
cm
rain mn
cm
humidity
%
barometer
mb
20260506083903 11 262 9.7 20.9 0.00 0.00 0.00 86 1019.5
20260506083003 11 250 11.3 27.4 0.00 0.00 0.00 87 1019.5
20260506082403 11 264 11.3 25.7 0.00 0.00 0.00 87 1019.5
20260506081503 11 262 11.3 22.5 0.00 0.00 0.00 88 1019.1
20260506080603 11 268 9.7 25.7 0.00 0.00 0.00 89 1019.1
20260506073003 10 257 12.9 30.6 0.00 0.00 0.00 91 1019.5
20260506072403 10 238 11.3 30.6 0.00 0.00 0.00 91 1019.8
20260506071503 10 236 11.3 30.6 0.00 0.00 0.00 92 1019.5
20260506070603 10 240 9.7 27.4 0.00 0.00 0.00 92 1019.5
20260506062403 10 249 11.3 29.0 0.00 0.00 0.00 94 1019.8
20260506061503 9 266 11.3 24.1 0.00 0.00 0.00 94 1019.5
20260506060603 9 258 9.7 27.4 0.00 0.00 0.00 95 1019.8
20260506050603 7 243 9.7 22.5 0.00 0.00 0.00 92 1019.8
20260506044803 7 253 9.7 24.1 0.00 0.00 0.00 90 1019.8
20260506043903 7 261 9.7 22.5 0.00 0.00 0.00 89 1019.8
20260506043003 8 240 9.7 22.5 0.00 0.00 0.00 86 1019.8
20260506042403 8 257 11.3 20.9 0.00 0.00 0.00 86 1019.8
20260506041503 8 267 9.7 20.9 0.00 0.00 0.00 84 1019.8
20260506040603 8 246 8.0 20.9 0.00 0.00 0.00 83 1019.8
20260506035703 8 252 8.0 16.1 0.00 0.00 0.00 81 1019.8
20260506035016 8 247 8.0 16.1 0.00 0.00 0.00 80 1019.5
20260506033903 8 271 8.0 22.5 0.00 0.00 0.00 78 1019.5
20260506033004 8 233 8.0 17.7 0.00 0.00 0.00 78 1019.5
20260506032403 8 274 6.4 17.7 0.00 0.00 0.00 78 1019.5
20260506031503 7 257 6.4 14.5 0.00 0.00 0.00 78 1019.1
20260506030817 7 249 6.4 16.1 0.00 0.00 0.00 77 1019.1
20260506025917 8 255 6.4 12.9 0.00 0.00 0.00 76 1019.1
20260506024803 7 260 4.8 12.9 0.00 0.00 0.00 76 1019.1
20260506023904 7 266 4.8 12.9 0.00 0.00 0.00 76 1019.1
20260506023217 7 267 4.8 12.9 0.00 0.00 0.00 76 1018.8
20260506022404 7 270 4.8 16.1 0.00 0.00 0.00 75 1019.1
20260506021504 8 264 4.8 14.5 0.00 0.00 0.00 75 1019.1
20260506020603 8 260 6.4 12.9 0.00 0.00 0.00 75 1019.1
20260506015703 8 247 6.4 16.1 0.00 0.00 0.00 75 1018.8
20260506014804 8 267 6.4 16.1 0.00 0.00 0.00 74 1018.8
20260506013903 8 267 6.4 17.7 0.00 0.00 0.00 73 1018.4
20260506013216 8 263 6.4 17.7 0.00 0.00 0.00 72 1018.8
20260506012403 8 246 8.0 20.9 0.00 0.00 0.00 71 1018.1
20260506011503 8 264 6.4 20.9 0.00 0.00 0.00 71 1018.4
20260506010603 8 244 6.4 20.9 0.00 0.00 0.00 72 1018.1
20260506005704 8 253 6.4 17.7 0.00 0.00 0.00 73 1018.1
20260506005018 8 249 6.4 17.7 0.00 0.00 0.00 73 1018.1
20260506003903 8 253 6.4 16.1 0.00 0.00 0.00 74 1017.7
20260506003003 8 246 8.0 24.1 0.00 0.00 0.00 73 1017.4
20260506002403 8 256 8.0 24.1 0.00 0.00 0.00 73 1017.1
20260506001503 8 268 8.0 20.9 0.00 0.00 0.00 73 1017.4
20260506000819 8 274 9.7 22.5 0.00 0.00 0.00 72 1017.1
20260505235703 8 249 9.7 25.7 0.00 0.00 0.00 73 1017.1
20260505234803 8 268 9.7 20.9 0.00 0.00 0.00 73 1016.7
20260505233903 8 267 8.0 22.5 0.00 0.00 0.00 73 1016.4
20260505233003 8 250 8.0 16.1 0.00 0.00 0.00 73 1016.4
20260505232403 8 265 8.0 17.7 0.00 0.00 0.00 72 1016.4
20260505231503 8 254 8.0 24.1 0.00 0.00 0.00 72 1016.0
20260505230603 8 251 8.0 17.7 0.00 0.00 0.00 72 1016.0
20260505225703 8 262 6.4 17.7 0.00 0.00 0.00 71 1015.7
20260505225019 9 261 8.0 17.7 0.00 0.00 0.00 70 1015.7
20260505223903 9 247 8.0 17.7 0.00 0.00 0.00 68 1015.3
20260505223003 10 266 8.0 22.5 0.00 0.00 0.00 67 1015.3
20260505222403 10 265 9.7 22.5 0.00 0.00 0.00 66 1015.3
20260505221503 10 262 9.7 20.9 0.00 0.00 0.00 64 1015.3
20260505220604 10 260 11.3 24.1 0.00 0.00 0.00 63 1015.0
20260505215703 11 264 11.3 24.1 0.00 0.00 0.00 63 1014.6
20260505214803 11 269 9.7 20.9 0.00 0.00 0.00 62 1014.6
20260505213903 11 269 11.3 24.1 0.00 0.00 0.00 62 1014.6
20260505213003 11 266 11.3 27.4 0.00 0.00 0.00 60 1014.3
20260505212404 11 271 12.9 27.4 0.00 0.00 0.00 58 1014.3
20260505211503 12 260 12.9 27.4 0.00 0.00 0.00 56 1013.6
20260505210603 12 262 12.9 27.4 0.00 0.00 0.00 53 1013.9
20260505205703 13 253 12.9 33.8 0.00 0.00 0.00 48 1013.9
20260505204804 13 271 14.5 27.4 0.00 0.00 0.00 43 1013.6
20260505203903 13 264 12.9 27.4 0.00 0.00 0.00 41 1013.9
20260505203003 13 270 12.9 30.6 0.00 0.00 0.00 38 1013.6
20260505202403 13 262 12.9 25.7 0.00 0.00 0.00 38 1013.3
20260505201503 13 253 14.5 30.6 0.00 0.00 0.00 36 1013.6
20260505200819 14 265 14.5 30.6 0.00 0.00 0.00 36 1013.6
20260505195703 15 280 12.9 27.4 0.00 0.00 0.00 35 1013.3
20260505194803 14 272 14.5 33.8 0.00 0.00 0.00 34 1013.6
20260505194117 14 245 16.1 35.4 0.00 0.00 0.00 34 1013.3
20260505193004 14 260 17.7 37.0 0.00 0.00 0.00 33 1013.3
20260505192403 14 263 16.1 43.5 0.00 0.00 0.00 34 1012.9
20260505191503 14 271 16.1 37.0 0.00 0.00 0.00 35 1012.6
20260505190603 15 266 12.9 35.4 0.00 0.00 0.00 34 1012.6
20260505185918 14 258 14.5 35.4 0.00 0.00 0.00 35 1012.6
20260505184804 14 248 14.5 37.0 0.00 0.00 0.00 36 1012.6
20260505183903 15 273 14.5 27.4 0.00 0.00 0.00 35 1012.6
20260505183003 15 274 12.9 35.4 0.00 0.00 0.00 36 1012.6
20260505182403 14 256 14.5 35.4 0.00 0.00 0.00 36 1012.2
20260505181717 14 257 16.1 33.8 0.00 0.00 0.00 37 1012.6
20260505180818 15 264 12.9 38.6 0.00 0.00 0.00 37 1012.6
20260505175703 14 269 16.1 38.6 0.00 0.00 0.00 38 1012.2
20260505175017 15 268 16.1 43.5 0.00 0.00 0.00 37 1012.2
20260505174118 15 252 16.1 40.2 0.00 0.00 0.00 36 1012.2
20260505173003 14 265 17.7 43.5 0.00 0.00 0.00 36 1012.2
20260505172619 15 285 17.7 43.5 0.00 0.00 0.00 35 1011.9
20260505171716 15 249 16.1 37.0 0.00 0.00 0.00 35 1012.2
20260505170603 15 257 16.1 35.4 0.00 0.00 0.00 35 1012.2
20260505165703 15 263 14.5 30.6 0.00 0.00 0.00 36 1011.5
20260505164803 15 259 12.9 29.0 0.00 0.00 0.00 36 1011.5
20260505163903 15 264 14.5 41.8 0.00 0.00 0.00 34 1011.5
20260505163003 14 259 14.5 29.0 0.00 0.00 0.00 33 1011.5
20260505162403 15 269 12.9 27.4 0.00 0.00 0.00 34 1011.5
20260505161718 14 277 14.5 46.7 0.00 0.00 0.00 33 1011.5
20260505160603 14 272 16.1 40.2 0.00 0.00 0.00 33 1010.8
20260505153219 14 271 16.1 40.2 0.00 0.00 0.00 35 1010.8
20260505152403 13 263 16.1 37.0 0.00 0.00 0.00 37 1010.8
20260505151503 13 257 14.5 33.8 0.00 0.00 0.00 37 1010.8
20260505150603 13 259 16.1 41.8 0.00 0.00 0.00 38 1010.8
20260505140603 12 271 11.3 29.0 0.00 0.00 0.00 50 1010.2
20260505124803 10 267 11.3 30.6 0.00 0.03 0.00 65 1009.5
20260505123903 10 249 11.3 29.0 0.00 0.03 0.00 68 1009.5
20260505123003 10 263 11.3 25.7 0.00 0.03 0.00 70 1009.1
20260505122403 10 261 11.3 25.7 0.00 0.03 0.00 69 1008.8
20260505121716 9 230 11.3 30.6 0.00 0.03 0.00 72 1008.8
20260505120603 9 274 11.3 24.1 0.00 0.03 0.00 71 1008.8
20260505115703 9 278 9.7 25.7 0.00 0.03 0.00 72 1008.8
20260505114803 8 263 11.3 25.7 0.00 0.03 0.00 73 1009.1
20260505114118 8 257 11.3 22.5 0.00 0.03 0.00 75 1008.8
20260505113003 8 258 11.3 25.7 0.00 0.03 0.00 75 1008.4
20260505112403 8 258 11.3 25.7 0.00 0.03 0.00 75 1008.1
20260505111503 8 247 11.3 25.7 0.00 0.03 0.00 75 1008.1
20260505110603 7 243 11.3 25.7 0.00 0.03 0.00 76 1008.1
20260505101503 6 256 9.7 22.5 0.00 0.03 0.00 81 1007.7
20260505100817 6 235 9.7 20.9 0.00 0.03 0.00 81 1007.4
20260505095703 6 271 9.7 29.0 0.00 0.03 0.00 82 1007.4
20260505094804 5 242 11.3 27.4 0.00 0.03 0.00 82 1007.1
20260505093903 5 235 9.7 24.1 0.00 0.03 0.00 82 1007.1
20260505093004 5 276 9.7 24.1 0.00 0.03 0.00 82 1007.1
20260505092403 5 276 9.7 24.1 0.00 0.03 0.00 82 1007.1
20260505091717 5 272 11.3 22.5 0.00 0.03 0.00 83 1006.7
20260505090603 4 252 9.7 22.5 0.00 0.03 0.00 84 1007.1
20260505085703 4 247 8.0 20.9 0.00 0.03 0.00 85 1006.7
20260505084804 4 295 9.7 22.5 0.00 0.03 0.00 87 1006.7